Weather History for Houston, TX

Change the Weather History Date:

Thursday, April 4, 2013

  Actual Average Record
Temperature  
Mean Temperature 53 °F 67 °F  
Max Temperature 56 °F 77 °F 88 °F (1897)
Min Temperature 50 °F 56 °F 34 °F (1987)
Degree Days  
Heating Degree Days 12 2  
Month to date heating degree days 18 8  
Since 1 July heating degree days 1124 1337  
Cooling Degree Days 0 4  
Month to date cooling degree days 7 16  
Year to date cooling degree days 112 125  
Growing Degree Days 4 (Base 50)    
Moisture  
Dew Point 45 °F    
Average Humidity 80    
Maximum Humidity 93    
Minimum Humidity 66    
Precipitation  
Precipitation T in 0.10 in 3.35 in (1922)
Month to date precipitation 1.65 0.40  
Year to date precipitation 7.07 10.39  
Sea Level Pressure  
Sea Level Pressure 30.12 in    
Wind  
Wind Speed 11 mph (NW)    
Max Wind Speed 20 mph    
Max Gust Speed 25 mph    
Visibility 10 miles    
Events      
T = Trace of Precipitation, MM = Missing Value Source: NWS Daily Summary

Daily Weather History Graph

Daily Weather History Graph

Search for Another Location

Airport:

Trip Planner

Search our weather history database for the weather conditions in past years. The results will help you decide how hot, cold, wet, or windy it might be!

Date:

Astronomy

Apr. 04, 2013 Rise Set
Actual Time 7:06 AM CDT 7:41 PM CDT
Civil Twilight 6:42 AM CDT 8:05 PM CDT
Nautical Twilight 6:14 AM CDT 8:33 PM CDT
Astronomical Twilight 5:45 AM CDT 9:02 PM CDT
Moon 3:09 AM CDT (4/4) 2:24 PM CDT (4/4)
Length of Visible Light 13h 22m
Length of Day
12h 34m
Waning Crescent, 33% of the Moon is Illuminated
Apr 4
Waning Crescent
Apr 10
New
Apr 18
First Quarter
Apr 25
Full
May 2
Last Quarter

Hourly Weather History & Observations

Time (CDT) Temp. Dew Point Humidity Pressure Visibility Wind Dir Wind Speed Gust Speed Precip Events Conditions
12:53 AM 53.1 °F 48.9 °F 86% 30.09 in 10.0 mi North 8.1 mph - N/A   Overcast
1:31 AM 53.6 °F 48.2 °F 82% 30.07 in 9.0 mi NNW 5.8 mph - N/A   Overcast
1:53 AM 52.0 °F 48.9 °F 89% 30.09 in 4.0 mi NNW 8.1 mph - N/A   Overcast
2:53 AM 52.0 °F 50.0 °F 93% 30.07 in 4.0 mi NNW 8.1 mph - 0.00 in   Overcast
3:53 AM 52.0 °F 48.9 °F 89% 30.04 in 10.0 mi North 8.1 mph - N/A   Overcast
4:53 AM 52.0 °F 48.9 °F 89% 30.05 in 10.0 mi NNW 8.1 mph - N/A   Overcast
5:53 AM 52.0 °F 48.0 °F 86% 30.07 in 10.0 mi WNW 9.2 mph - N/A   Overcast
6:06 AM 51.8 °F 48.2 °F 88% 30.06 in 10.0 mi NW 10.4 mph - N/A   Overcast
6:53 AM 52.0 °F 46.9 °F 83% 30.09 in 10.0 mi WNW 9.2 mph - N/A   Overcast
7:53 AM 52.0 °F 46.0 °F 80% 30.12 in 10.0 mi NW 11.5 mph - N/A   Overcast
8:53 AM 52.0 °F 46.0 °F 80% 30.14 in 10.0 mi NW 10.4 mph - N/A   Overcast
9:53 AM 53.1 °F 46.9 °F 80% 30.15 in 10.0 mi NW 12.7 mph - N/A   Overcast
10:53 AM 55.0 °F 46.0 °F 72% 30.15 in 10.0 mi WNW 11.5 mph - N/A   Overcast
11:53 AM 54.0 °F 45.0 °F 72% 30.16 in 10.0 mi NNW 13.8 mph 19.6 mph N/A   Overcast
12:35 PM 57.2 °F 46.4 °F 67% 30.13 in 10.0 mi NW 15.0 mph 19.6 mph N/A   Mostly Cloudy
12:53 PM 55.9 °F 44.1 °F 64% 30.14 in 10.0 mi NNW 12.7 mph - N/A   Overcast
1:00 PM 57.2 °F 44.6 °F 63% 30.12 in 10.0 mi NW 11.5 mph - N/A   Overcast
1:10 PM 55.4 °F 44.6 °F 67% 30.12 in 10.0 mi WNW 17.3 mph 23.0 mph N/A   Overcast
1:26 PM 57.2 °F 42.8 °F 59% 30.12 in 10.0 mi NW 15.0 mph - N/A   Overcast
1:53 PM 57.0 °F 43.0 °F 59% 30.12 in 10.0 mi WNW 17.3 mph - N/A   Overcast
2:53 PM 55.0 °F 43.0 °F 64% 30.11 in 10.0 mi WNW 16.1 mph - N/A   Overcast
3:53 PM 57.0 °F 43.0 °F 59% 30.09 in 10.0 mi NW 13.8 mph 21.9 mph N/A   Mostly Cloudy
4:53 PM 57.0 °F 42.1 °F 57% 30.09 in 10.0 mi NNW 15.0 mph - N/A   Overcast
5:53 PM 54.0 °F 42.1 °F 64% 30.11 in 10.0 mi NNW 13.8 mph 23.0 mph N/A   Overcast
6:53 PM 53.1 °F 39.9 °F 61% 30.12 in 10.0 mi NNW 17.3 mph 24.2 mph N/A   Overcast
7:53 PM 53.1 °F 41.0 °F 64% 30.14 in 10.0 mi NNW 12.7 mph - N/A   Overcast
8:53 PM 53.1 °F 41.0 °F 64% 30.15 in 10.0 mi NNW 11.5 mph - N/A   Overcast
9:53 PM 52.0 °F 41.0 °F 66% 30.18 in 10.0 mi NNW 12.7 mph 21.9 mph N/A   Overcast
10:53 PM 52.0 °F 39.9 °F 63% 30.20 in 10.0 mi North 16.1 mph - N/A   Overcast
11:53 PM 52.0 °F 39.9 °F 63% 30.20 in 10.0 mi North 19.6 mph - N/A   Overcast